Погода в Рождественке

Россия / Челябинская область     54°26′26″N   61°41′01″E
темп.,
°C
ветер,
м/с
пор.,
м/с
влажн.,
%
обл.,
%
осадки,
мм/ч
давл.,
гПа
погр.,
м
23 сентября, чт
чт2323:00+5св35785 0.0 102683
02:00+4св118443 0.0 102710
05:00+5ссз247688 0.0 1028111
08:00+7с246561 0.0 1029210
11:00+10св34445 0.0 10291294
14:00+11ссв33385 0.0 10291494
17:00+12св33375 0.0 10281353
20:00+7всв33565 0.0 102926
24 сентября, пт
пт2423:00+5вюв34645 0.0 103051
02:00+4ююв34701 0.0 103051
05:00+3ю337297 0.0 103026
08:00+4ююз2463100 0.0 1030130
11:00+10ююз4641100 0.0 1030616
14:00+14ююз5632100 0.0 10281181
17:00+14ю453270 0.0 10271142
20:00+9ю464596 0.0 102778
25 сентября, сб
сб2523:00+7ю475023 0.0 1027112
02:00+6ю365451 0.0 102793
05:00+4ю36567 0.0 102689
08:00+5ююв385241 0.0 1025189
11:00+12ююв573465 0.0 1023663
14:00+16ююв6726100 0.0 10211051
17:00+16юв5625100 0.0 10191102
20:00+11вюв4934100 0.0 1019156
26 сентября, вс
вс2623:00+11вюв51135100 0.0 1019286
02:00+11вюв61238100 0.0 1018346
05:00+10вюв51241100 0.0 1018368
08:00+9вюв51244100 0.0 1018424
11:00+10в71346100 0.0 1019545
14:00+10вюв71150100 0.1 1019684
17:00+11в81250100 0.4 1018859
20:00+9в81441100 0.0 1018843
27 сентября, пн
пн2723:00+7в81436100 0.0 1017804
02:00+6всв91544100 0.0 1016808
05:00+4всв101759100 0.0 1015852
08:00+3всв101765100 0.0 1016894
11:00+5всв111650100 0.1 10161074
14:00+7всв101638100 0.0 10161360
17:00+7в10173933 0.0 10171631
20:00+4всв814539 0.0 1018873